Theta_e
344 347 344 344 343 342 339 344 345 343 344 347 347 346 347 345 341 340 339 338 336 337 339 341 342 342 341 340 340 339 339 340 337 337 338 339 340 340 339 338 339 340 339
344 347 343 344 344 344 340 344 346 345 346 346 345 345 347 341 340 340 340 339 337 338 337 336 339 341 340 339 337 337 337 335 335 336 337 338 338 339 339 338 339 339 337
344 347 346 344 345 343 343 342 344 344 344 345 345 345 344 342 341 342 340 340 338 339 337 339 339 336 337 336 336 336 332 333 335 336 337 339 340 339 338 336 336 336 333
345 348 347 342 345 344 343 343 344 344 343 343 344 343 343 343 343 342 340 342 343 340 336 336 334 335 336 336 330 329 330 332 337 337 337 337 337 337 336 334 331 329 330
345 347 344 343 345 344 343 343 343 343 343 342 344 342 342 342 343 343 340 343 341 337 334 335 335 335 331 329 327 322 322 329 333 335 334 334 334 334 331 328 330 331 330
345 346 344 343 343 344 344 343 341 342 343 342 342 342 341 340 342 341 342 340 338 337 334 335 334 330 329 328 328 326 322 319 326 331 328 330 331 332 330 329 330 330 331
345 345 344 342 342 343 343 342 342 340 340 341 341 342 342 339 339 341 341 338 336 335 334 335 332 329 328 327 327 325 323 318 319 320 322 325 331 332 332 330 331 331 331
344 342 342 342 340 339 341 342 342 342 340 341 341 341 341 340 339 340 340 338 335 334 334 335 330 329 328 327 326 327 322 319 320 321 323 327 331 333 331 328 327 327 328
343 340 338 340 340 337 335 334 338 340 341 340 340 341 341 340 339 340 339 338 333 333 336 335 329 327 328 328 328 328 325 320 322 323 324 328 330 333 328 327 326 326 327
341 342 340 338 338 337 337 334 333 333 339 340 340 340 340 340 339 339 340 338 330 327 331 329 328 326 328 328 328 328 328 325 323 322 323 326 329 333 329 326 326 326 326
334 338 341 340 338 336 335 335 335 335 330 335 340 339 340 340 339 339 340 338 328 321 323 323 324 326 328 328 328 328 329 328 328 325 323 324 327 333 329 327 326 326 326
312 326 334 338 339 339 339 338 336 335 335 333 340 338 340 340 339 339 340 337 332 321 319 320 321 327 328 327 328 329 329 328 327 328 328 326 325 333 332 328 327 326 327
307 311 325 334 336 338 338 338 336 334 333 333 337 339 339 340 339 339 339 337 335 328 328 326 327 330 327 327 327 328 328 328 327 328 328 328 326 328 334 330 328 328 328
307 308 317 329 334 336 337 337 337 335 335 337 335 337 339 340 340 340 338 337 335 334 326 327 330 325 325 325 325 327 328 328 326 324 325 327 326 326 332 334 330 329 330
306 307 310 325 332 334 336 336 336 335 335 337 337 336 336 338 339 339 338 337 335 334 330 325 326 327 326 325 324 324 325 326 325 324 324 326 327 327 327 329 329 327 327
306 306 308 318 329 332 334 335 333 333 335 336 337 337 337 337 337 336 338 336 335 333 332 328 327 327 327 325 323 320 320 321 324 325 325 325 326 327 327 328 328 330 330
306 306 306 311 325 330 333 334 333 332 330 329 328 331 336 337 337 336 336 336 334 333 332 331 331 331 328 325 322 322 324 324 325 326 326 325 327 327 327 327 327 328 329
307 306 306 311 320 329 332 332 332 331 330 329 329 331 328 328 335 337 335 335 334 333 332 331 333 333 329 327 325 322 323 324 325 325 326 327 328 328 328 328 327 327 327
307 306 306 307 313 323 329 331 331 329 329 328 328 324 323 324 327 335 336 334 333 333 333 332 332 331 330 328 327 324 323 325 324 324 326 327 328 329 329 329 328 327 327
307 306 306 306 307 314 323 328 330 330 330 329 327 324 325 325 326 329 334 334 333 333 333 333 332 329 330 330 329 326 326 325 325 326 326 328 329 329 329 329 328 327 327
306 306 306 306 306 309 322 324 324 325 325 324 324 324 326 327 328 329 331 333 333 332 332 332 331 328 329 330 329 327 327 325 326 327 328 329 329 330 330 330 327 327 326
306 306 306 306 308 309 320 325 325 325 325 325 325 327 328 327 328 328 330 332 333 332 332 331 330 328 328 328 328 325 328 327 327 327 328 327 328 329 329 328 327 326 324
308 307 306 307 308 312 321 325 325 326 326 327 327 328 327 327 327 328 328 329 331 331 330 330 325 327 326 325 326 327 329 330 325 326 326 326 327 327 327 326 325 325 323
309 308 308 308 310 314 320 323 325 325 326 327 327 326 327 328 328 328 327 328 330 330 330 327 324 325 326 325 325 325 326 326 328 328 323 325 325 325 326 325 325 325 324
312 310 309 309 314 317 321 323 325 324 324 325 326 327 327 328 328 327 327 327 329 326 326 326 326 323 320 321 323 325 325 325 324 322 328 325 324 325 326 325 324 325 324
316 316 316 318 318 321 322 325 323 324 324 324 327 328 327 328 328 328 327 329 329 326 321 321 321 321 323 321 322 323 325 325 324 322 323 325 325 325 325 324 323 323 324
Wind_Speed
7 19 23 21 21 20 20 19 18 20 19 18 17 17 17 15 14 16 15 18 18 16 15 14 16 17 15 14 15 15 16 14 15 15 15 15 15 16 15 15 15 14 15
12 21 22 21 20 19 19 18 17 17 17 17 15 15 15 14 15 16 16 16 17 15 15 14 14 16 15 15 14 15 15 15 16 16 18 16 16 16 15 15 15 13 12
16 23 21 20 20 21 18 18 17 17 16 16 15 14 15 15 17 16 16 17 19 17 16 16 15 16 15 13 14 15 15 15 15 17 17 14 14 15 13 11 10 12 12
13 17 20 22 21 21 20 19 17 16 17 17 15 14 15 16 17 17 18 16 18 19 18 17 16 15 15 13 13 14 14 14 14 14 13 12 10 10 10 9 10 11 12
14 19 19 20 19 20 20 19 19 17 15 16 17 14 15 17 17 19 19 18 19 18 17 18 16 16 13 11 13 13 12 12 12 12 12 10 9 8 9 10 10 10 11
15 19 19 19 18 18 19 19 19 19 18 16 14 16 14 16 16 17 19 20 19 17 17 18 16 14 13 13 13 11 11 11 11 9 9 8 8 9 9 10 9 9 9
15 18 18 19 20 18 18 19 19 19 18 17 17 17 16 15 13 16 21 19 17 17 20 18 16 14 13 13 14 11 10 11 10 10 10 9 8 8 8 8 8 8 8
12 17 17 16 16 17 17 18 18 17 18 17 17 17 16 15 14 19 22 18 16 17 20 18 16 14 12 12 12 11 10 10 11 10 10 9 8 7 7 6 6 7 7
8 11 17 17 16 16 16 17 18 17 17 17 17 16 15 16 17 17 20 16 16 17 18 18 17 15 12 11 11 10 9 9 9 9 9 8 8 6 5 5 5 6 6
5 11 17 17 17 18 16 16 17 18 17 17 16 16 15 16 17 19 20 16 17 17 18 18 18 16 13 11 10 10 8 8 8 7 7 7 7 4 3 3 4 4 4
5 5 11 18 18 18 18 18 16 16 18 18 17 16 16 16 18 18 20 18 17 17 18 18 18 17 14 12 11 11 9 8 7 6 6 6 6 5 4 2 2 1 2
15 9 9 11 18 19 21 19 18 18 18 19 18 18 18 18 19 19 20 19 16 17 18 18 18 18 16 15 13 12 11 10 8 7 6 5 5 6 5 4 3 1 2
17 15 11 13 15 18 18 18 18 17 15 19 19 18 18 19 20 21 20 19 17 17 16 17 17 16 18 17 15 13 12 11 9 9 9 8 7 7 7 6 4 4 4
19 18 14 13 16 18 17 18 18 17 18 20 20 19 21 21 22 24 21 23 18 18 19 19 17 19 18 17 16 15 14 12 11 9 10 10 9 8 8 9 8 7 8
22 20 16 15 18 21 21 19 20 18 17 18 20 21 22 23 24 25 23 24 21 20 21 22 21 20 19 18 16 15 16 15 13 12 11 11 11 10 8 7 7 7 7
23 24 19 17 19 21 23 22 21 18 16 17 18 19 21 23 24 25 27 25 24 24 23 23 23 21 20 18 17 16 15 15 14 13 14 14 14 13 13 13 10 9 10
27 25 23 19 18 23 25 26 25 23 21 18 13 12 16 20 23 22 26 30 30 28 27 24 23 22 21 20 19 17 16 16 17 16 15 16 15 15 16 17 16 14 13
29 29 24 21 20 22 29 28 27 25 24 23 19 16 18 19 22 26 25 27 33 32 32 26 26 23 22 20 19 18 18 18 18 18 18 17 17 18 19 20 21 18 17
29 30 27 24 22 22 27 29 28 26 25 24 22 20 20 21 23 27 30 27 28 33 31 30 27 23 23 22 19 20 19 20 19 19 20 19 19 19 18 19 19 21 20
28 30 29 26 25 22 24 29 30 28 28 29 26 23 21 23 23 26 30 31 30 26 28 32 31 24 25 23 18 21 20 22 21 21 21 20 19 19 19 18 19 19 19
28 30 30 26 26 24 21 19 19 24 30 28 29 27 25 23 22 24 27 30 34 29 30 32 32 26 30 25 13 15 21 25 24 23 21 20 21 20 20 20 20 18 18
26 31 32 25 23 27 26 25 18 19 21 26 22 22 22 25 24 24 27 29 31 27 29 28 30 23 21 21 10 4 5 8 17 22 24 21 20 20 20 17 17 18 17
24 32 33 30 26 26 23 19 20 15 13 14 21 22 22 22 26 28 27 28 29 30 29 31 33 31 23 19 22 10 2 5 3 5 14 20 19 18 18 19 20 20 19
25 26 28 28 27 25 24 23 22 19 17 19 18 20 18 20 24 26 28 30 31 32 28 30 34 29 23 15 18 24 26 12 3 2 3 7 15 17 21 23 23 22 22
16 19 24 24 24 22 23 24 21 19 20 18 18 18 18 19 23 24 30 30 30 29 31 30 30 26 21 21 21 16 22 17 14 7 7 7 13 21 23 24 27 23 24
12 15 19 21 21 20 21 22 21 20 19 19 17 17 18 18 19 25 29 31 31 30 27 29 29 27 29 30 28 31 29 11 12 8 6 11 11 15 19 22 26 29 31
Wind_Direction
183 172 174 170 167 166 168 163 159 160 157 148 151 150 148 148 149 148 145 138 136 132 130 120 117 118 117 114 109 107 103 99 100 105 108 101 98 94 97 98 88 85 79
176 173 179 173 172 169 170 165 163 161 157 154 157 158 152 154 151 149 149 144 143 136 134 131 129 119 117 113 112 112 109 110 109 106 103 100 98 97 96 94 88 77 73
179 174 178 173 176 179 174 169 166 165 163 160 164 162 158 156 153 153 153 150 145 137 137 136 126 124 128 125 120 120 120 116 115 111 104 99 96 96 94 85 85 76 71
179 177 177 178 177 179 178 174 172 171 172 168 168 169 167 165 162 157 154 156 153 142 140 139 137 135 133 128 124 124 125 123 120 118 107 103 97 93 93 87 82 79 77
181 185 184 181 180 181 185 180 176 176 179 174 172 178 180 175 175 164 160 152 147 144 148 146 144 150 143 141 135 129 134 136 137 129 122 115 103 101 95 91 83 79 77
188 188 187 186 184 184 190 189 186 184 184 186 183 186 191 184 186 184 169 159 155 161 160 156 161 149 142 138 150 140 134 142 145 144 134 124 105 105 101 96 90 83 79
189 190 191 196 194 193 193 195 196 195 196 193 189 193 193 188 190 181 170 170 176 171 167 166 163 154 147 143 144 147 140 139 141 138 133 124 113 114 106 96 89 82 78
202 195 194 202 206 206 208 207 202 203 204 202 200 201 198 190 190 182 175 181 181 180 169 171 168 162 158 154 150 146 144 144 142 140 136 130 127 121 111 102 90 80 78
204 210 208 200 206 211 212 214 212 209 211 211 209 207 204 194 192 192 185 191 188 179 174 178 176 171 166 165 165 154 146 148 147 145 142 140 133 137 126 108 92 81 73
207 211 208 212 209 210 212 215 219 214 216 216 216 212 208 203 198 193 193 198 195 192 186 186 186 182 176 170 175 171 161 156 155 156 155 154 144 158 146 124 106 86 75
341 254 238 207 217 220 219 220 220 222 218 217 217 215 211 205 204 199 200 198 198 195 194 194 196 192 185 183 180 185 189 184 180 173 174 174 168 188 193 178 153 105 67
339 319 261 239 221 217 223 221 218 218 218 211 210 210 211 209 209 203 204 204 202 201 200 199 199 200 197 194 194 196 200 201 206 206 206 208 204 208 222 230 234 255 302
305 311 291 248 232 225 232 224 223 224 221 217 215 212 210 210 210 207 202 201 204 207 202 201 203 206 210 207 207 209 207 208 215 221 222 223 227 220 231 245 254 261 270
287 290 292 259 234 229 221 220 224 218 218 219 216 213 209 209 210 207 202 206 206 207 211 208 208 212 217 220 221 221 221 227 231 236 235 231 232 233 228 245 259 272 268
271 266 274 260 245 229 225 218 218 221 216 215 217 217 216 211 210 211 209 212 213 217 216 216 218 219 224 227 230 232 231 232 238 246 248 240 238 239 237 236 252 262 270
260 259 260 264 245 238 224 214 211 208 204 207 215 219 217 218 218 217 216 217 221 224 226 224 225 225 230 233 237 240 242 243 242 247 254 248 244 244 245 243 245 252 261
260 258 256 258 248 232 225 218 216 213 206 209 213 223 230 230 228 220 219 216 222 227 226 231 231 233 233 238 240 241 248 251 251 252 254 249 248 251 251 251 253 256 256
258 256 248 245 248 232 227 225 224 222 217 218 225 248 247 243 239 233 223 221 222 223 221 217 229 234 241 243 251 248 250 256 256 254 250 251 255 261 259 256 254 254 255
253 252 252 242 243 239 232 230 230 230 231 235 245 254 251 246 242 238 235 228 226 225 220 216 221 234 240 247 255 261 256 263 262 257 255 253 258 264 264 267 257 252 255
248 248 248 250 242 243 237 233 234 237 241 244 249 256 257 250 240 238 234 232 229 220 217 219 225 223 244 250 262 266 266 266 265 262 260 260 259 259 263 265 258 246 250
250 247 246 244 242 235 230 221 228 230 235 239 245 245 249 247 244 237 233 227 230 220 219 223 218 214 235 238 250 273 281 271 263 259 259 256 257 255 256 259 251 244 247
251 248 251 241 242 235 228 222 217 225 231 240 247 251 246 245 245 241 232 226 226 216 221 213 200 200 235 249 218 236 284 278 255 253 252 252 253 251 249 243 240 242 250
260 249 248 248 239 232 218 212 212 220 232 232 236 242 248 245 244 240 228 224 215 226 214 200 200 205 208 227 257 208 216 240 321 263 243 240 239 240 240 236 237 245 251
257 243 240 244 237 227 214 217 206 211 210 223 229 244 250 237 239 236 237 227 224 216 208 206 206 213 215 206 240 235 238 248 239 289 263 249 247 244 247 242 241 245 252
250 240 234 235 238 225 209 210 206 214 223 224 233 239 240 242 233 240 237 227 227 224 221 216 208 206 216 226 225 245 236 238 242 237 272 247 255 246 247 250 248 251 250
251 243 243 227 221 213 207 206 209 214 219 225 226 225 231 234 233 239 234 228 225 225 221 219 215 220 225 225 238 244 234 217 215 214 243 255 255 265 260 258 259 257 258